Time,TemperatureF,DewpointF,PressureIn,WindDirection,WindDirectionDegrees,WindSpeedMPH,WindSpeedGustMPH,Humidity,HourlyPrecipIn,Conditions,Clouds,dailyrainin,SoftwareType,DateUTC
2013-08-02 13:43:00,78.0,54.0,29.89,ESE,108,4.0,14.0,44,0.00,,,0.01,,2013-08-02 17:43:00,
2013-08-02 13:52:00,79.0,52.0,29.88,NE,47,4.0,12.0,39,0.00,,,0.01,,2013-08-02 17:52:00,
2013-08-02 14:12:00,80.0,53.0,29.88,East,91,5.0,10.0,40,0.00,,,0.01,,2013-08-02 18:12:00,
2013-08-02 14:22:00,78.0,52.0,29.89,WNW,287,5.0,13.0,40,0.00,,,0.01,,2013-08-02 18:22:00,
2013-08-02 14:32:00,78.0,52.0,29.89,WNW,287,5.0,13.0,40,0.00,,,0.01,,2013-08-02 18:32:00,
2013-08-02 14:43:00,78.0,54.0,29.89,East,84,4.0,10.0,43,0.00,,,0.00,,2013-08-02 18:43:00,
2013-08-02 14:52:00,77.0,53.0,29.89,ENE,63,3.0,15.0,44,0.00,,,0.00,,2013-08-02 18:52:00,
2013-08-02 15:02:00,77.0,53.0,29.89,ENE,63,3.0,15.0,44,0.00,,,0.00,,2013-08-02 19:02:00,
2013-08-02 15:12:00,77.0,56.0,29.88,ESE,122,2.0,9.0,48,0.00,,,0.00,,2013-08-02 19:12:00,
2013-08-02 15:43:00,77.0,55.0,29.90,NE,47,3.0,13.0,46,0.00,,,0.00,,2013-08-02 19:43:00,
2013-08-02 15:52:00,76.0,54.0,29.90,East,89,3.0,9.0,47,0.00,,,0.00,,2013-08-02 19:52:00,
2013-08-02 16:02:00,76.0,54.0,29.90,East,89,3.0,9.0,47,0.00,,,0.00,,2013-08-02 20:02:00,
2013-08-02 16:12:00,76.0,54.0,29.90,ENE,66,1.0,9.0,47,0.00,,,0.00,,2013-08-02 20:12:00,
2013-08-02 16:23:00,75.0,55.0,29.90,SE,136,2.0,10.0,49,0.00,,,0.00,,2013-08-02 20:23:00,
2013-08-02 16:43:00,75.0,55.0,29.88,NE,47,1.0,9.0,50,0.00,,,0.00,,2013-08-02 20:43:00,
2013-08-02 16:52:00,74.0,55.0,29.85,East,91,2.0,9.0,52,0.00,,,0.00,,2013-08-02 20:52:00,
2013-08-02 17:02:00,74.0,55.0,29.85,East,91,2.0,9.0,52,0.00,,,0.00,,2013-08-02 21:02:00,
2013-08-02 17:12:00,74.0,55.0,29.85,East,91,2.0,9.0,52,0.00,,,0.00,,2013-08-02 21:12:00,
2013-08-02 17:22:00,76.0,55.0,29.88,East,79,3.0,11.0,48,0.00,,,0.00,,2013-08-02 21:22:00,
2013-08-02 17:32:00,76.0,55.0,29.88,East,79,3.0,11.0,48,0.00,,,0.00,,2013-08-02 21:32:00,
2013-08-02 17:43:00,77.0,56.0,29.88,NE,39,1.0,9.0,48,0.00,,,0.00,,2013-08-02 21:43:00,
2013-08-02 17:53:00,77.0,54.0,29.88,ESE,102,6.0,13.0,45,0.00,,,0.00,,2013-08-02 21:53:00,
2013-08-02 18:03:00,75.0,52.0,29.88,ESE,105,6.0,14.0,45,0.00,,,0.00,,2013-08-02 22:03:00,
2013-08-02 18:12:00,75.0,52.0,29.88,ESE,105,6.0,14.0,45,0.00,,,0.00,,2013-08-02 22:12:00,
2013-08-02 18:22:00,76.0,52.0,29.88,NE,46,3.0,10.0,44,0.00,,,0.00,,2013-08-02 22:22:00,
2013-08-02 18:32:00,76.0,52.0,29.88,SE,145,3.0,10.0,44,0.00,,,0.00,,2013-08-02 22:32:00,
2013-08-02 18:43:00,76.0,52.0,29.88,SE,145,3.0,10.0,44,0.00,,,0.00,,2013-08-02 22:43:00,
2013-08-02 18:52:00,75.0,52.0,29.88,NE,37,3.0,9.0,45,0.00,,,0.00,,2013-08-02 22:52:00,
2013-08-02 19:02:00,75.0,53.0,29.88,East,97,3.0,11.0,47,0.00,,,0.00,,2013-08-02 23:02:00,
2013-08-02 19:12:00,75.0,53.0,29.88,East,97,3.0,11.0,47,0.00,,,0.00,,2013-08-02 23:12:00,
2013-08-02 19:22:00,74.0,53.0,29.88,ENE,64,2.0,8.0,48,0.00,,,0.00,,2013-08-02 23:22:00,
2013-08-02 19:32:00,74.0,53.0,29.88,ENE,64,2.0,8.0,48,0.00,,,0.00,,2013-08-02 23:32:00,
2013-08-02 19:43:00,74.0,53.0,29.88,ENE,75,2.0,7.0,48,0.00,,,0.00,,2013-08-02 23:43:00,
2013-08-02 19:53:00,73.0,54.0,29.88,ENE,63,0.0,3.0,51,0.00,,,0.00,,2013-08-02 23:53:00,
2013-08-02 20:02:00,71.0,54.0,29.89,ESE,105,0.0,2.0,55,0.00,,,0.00,,2013-08-03 00:02:00,
2013-08-02 20:12:00,71.0,54.0,29.89,ESE,105,0.0,2.0,55,0.00,,,0.00,,2013-08-03 00:12:00,
2013-08-02 20:22:00,70.0,55.0,29.89,East,87,0.0,2.0,58,0.00,,,0.00,,2013-08-03 00:22:00,
2013-08-02 20:33:00,70.0,55.0,29.89,East,87,0.0,2.0,58,0.00,,,0.00,,2013-08-03 00:33:00,
2013-08-02 20:43:00,69.0,55.0,29.89,East,88,0.0,1.0,62,0.00,,,0.00,,2013-08-03 00:43:00,
2013-08-02 20:52:00,68.0,56.0,29.90,ESE,105,0.0,1.0,65,0.00,,,0.00,,2013-08-03 00:52:00,
2013-08-02 21:03:00,67.0,55.0,29.90,ESE,105,0.0,1.0,66,0.00,,,0.00,,2013-08-03 01:03:00,
2013-08-02 21:12:00,67.0,55.0,29.90,ESE,105,0.0,1.0,66,0.00,,,0.00,,2013-08-03 01:12:00,
2013-08-02 21:22:00,66.0,55.0,29.91,ESE,105,0.0,0.0,67,0.00,,,0.00,,2013-08-03 01:22:00,
2013-08-02 21:33:00,66.0,55.0,29.91,ESE,105,0.0,0.0,67,0.00,,,0.00,,2013-08-03 01:33:00,
2013-08-02 21:42:00,66.0,56.0,29.91,ESE,105,0.0,0.0,69,0.00,,,0.00,,2013-08-03 01:42:00,
2013-08-02 21:53:00,66.0,56.0,29.91,ESE,105,0.0,0.0,69,0.00,,,0.00,,2013-08-03 01:53:00,
2013-08-02 22:02:00,66.0,56.0,29.91,ESE,105,0.0,0.0,69,0.00,,,0.00,,2013-08-03 02:02:00,
2013-08-02 22:12:00,66.0,56.0,29.90,ESE,105,0.0,1.0,69,0.00,,,0.00,,2013-08-03 02:12:00,
2013-08-02 22:22:00,66.0,56.0,29.90,ESE,105,0.0,1.0,69,0.00,,,0.00,,2013-08-03 02:22:00,
2013-08-02 22:32:00,66.0,54.0,29.90,ESE,105,0.0,1.0,66,0.00,,,0.00,,2013-08-03 02:32:00,
2013-08-02 22:43:00,66.0,54.0,29.91,ESE,107,0.0,1.0,66,0.00,,,0.00,,2013-08-03 02:43:00,
2013-08-02 22:52:00,66.0,54.0,29.91,ESE,107,0.0,1.0,66,0.00,,,0.00,,2013-08-03 02:52:00,
2013-08-02 23:03:00,66.0,55.0,29.91,ESE,108,0.0,0.0,68,0.00,,,0.00,,2013-08-03 03:03:00,
2013-08-02 23:32:00,65.0,56.0,29.90,ESE,120,0.0,1.0,73,0.00,,,0.00,,2013-08-03 03:32:00,
2013-08-02 23:43:00,64.0,56.0,29.90,ESE,120,0.0,0.0,74,0.00,,,0.00,,2013-08-03 03:43:00,
2013-08-02 23:53:00,64.0,56.0,29.90,ESE,120,0.0,0.0,74,0.00,,,0.00,,2013-08-03 03:53:00,